Location: Atwood Ridge
(37.4206°N, 89.3343°W)
Time: 07:30:29
(UTC+00:00)

Daily predictions for brighter satellites

Satellite Brightness Start Highest point End
(mag) Time Altitude Azimuth Time Altitude Azimuth Time Altitude Azimuth
Cosmos 2228 2.9 23:24:25 10° S 23:28:38 81° E 23:32:55 10° N
Aureole 3 Rocket 3.7 23:25:28 10° SSE 23:28:45 30° E 23:32:58 10° NNE
Cosmos 1741 Rocket 4.4 23:23:57 10° NNW 23:29:10 71° WSW 23:34:20 10° S
Cosmos 1758 Rocket 3.6 23:26:25 10° N 23:30:49 89° E 23:35:09 10° S
Milstar 3 3.8 23:24:39 10° WSW 23:31:42 38° S 23:37:49 10° ESE
Cosmos 1689 Rocket 3.3 23:29:27 10° NE 23:31:48 22° E 23:34:08 10° SSE
Helios 1A Rocket 4.3 23:31:55 10° ESE 23:34:50 19° ENE 23:37:45 10° NNE
Cosmos 1606 Rocket 3.7 23:34:00 10° S 23:38:20 83° W 23:42:45 10° N
Timation 2 Rocket 4.3 23:36:28 10° NNW 23:43:01 57° ENE 23:49:43 10° SE
Cosmos 1400 Rocket 3.0 23:40:01 10° S 23:44:01 53° E 23:48:00 10° NNE
Meteor 2-10 Rocket 4.4 23:40:15 10° SSE 23:44:42 27° E 23:49:03 10° NE
Meteor 2-21 Rocket 4.4 23:39:09 10° N 23:45:19 75° E 23:51:24 10° SSE
Cosmos 2219 3.8 23:40:17 10° N 23:45:36 37° ENE 23:50:53 10° SE
Okean-O 3.7 23:43:01 10° ESE 23:46:33 24° ENE 23:50:07 10° NNE
CZ-4 R/B 2.5 23:47:48 10° ESE 23:50:47 21° ENE 23:53:45 10° NNE
SKYMED 2 3.6 23:47:06 10° NNE 23:51:23 58° E 23:55:39 10° S
USA 281 3.5 23:45:34 10° SSE 23:52:06 76° WSW 23:58:42 10° NNW
OAO 2 Rocket 3.7 23:48:33 10° WSW 23:53:25 53° SSE 23:57:25 15° E
Cosmos 1892 3.8 23:50:12 10° NNE 23:53:25 24° ENE 23:56:38 10° SE
Cosmos 1408 4.2 23:52:34 10° NE 23:54:51 16° ENE 23:54:58 16° ENE
